| time (UTC) | temp F | wind direction | speed knots | gust knots | rain 1hr in | rain 24hr in | rain mn in | humidity % | barometer mb |
| 20260505092723 | 56 | 26 | 0.9 | 2.6 | 0.00 | 0.00 | 0.00 | 67 | 1006.0 |
| 20260505091727 | 55 | 9 | 3.5 | 9.6 | 0.00 | 0.00 | 0.00 | 67 | 1006.1 |
| 20260505090731 | 55 | 336 | 4.3 | 7.8 | 0.00 | 0.00 | 0.00 | 69 | 1006.2 |
| 20260505085746 | 55 | 69 | 3.5 | 7.8 | 0.00 | 0.00 | 0.00 | 68 | 1006.3 |
| 20260505084755 | 55 | 67 | 4.3 | 9.6 | 0.00 | 0.00 | 0.00 | 70 | 1006.5 |
| 20260505083722 | 55 | 61 | 6.1 | 11.3 | 0.00 | 0.00 | 0.00 | 72 | 1006.6 |
| 20260505082727 | 55 | 55 | 7.8 | 12.2 | 0.00 | 0.00 | 0.00 | 70 | 1006.8 |
| 20260505081734 | 56 | 24 | 2.6 | 11.3 | 0.00 | 0.00 | 0.00 | 68 | 1007.0 |
| 20260505080727 | 55 | 355 | 3.5 | 5.2 | 0.00 | 0.00 | 0.00 | 68 | 1007.0 |
| 20260505075739 | 55 | 57 | 2.6 | 7.0 | 0.00 | 0.00 | 0.00 | 66 | 1006.9 |
| 20260505074725 | 54 | 65 | 4.3 | 6.1 | 0.00 | 0.00 | 0.00 | 67 | 1006.8 |
| 20260505073731 | 55 | 88 | 5.2 | 7.8 | 0.00 | 0.00 | 0.00 | 66 | 1006.6 |
| 20260505072722 | 55 | 360 | 1.7 | 3.5 | 0.00 | 0.00 | 0.00 | 62 | 1006.7 |
| 20260505071749 | 55 | 348 | 0.0 | 2.6 | 0.00 | 0.00 | 0.00 | 62 | 1006.4 |
| 20260505070734 | 54 | 348 | 0.9 | 4.3 | 0.00 | 0.00 | 0.00 | 63 | 1006.2 |
| 20260505065730 | 53 | 336 | 1.7 | 5.2 | 0.00 | 0.00 | 0.00 | 64 | 1006.0 |
| 20260505064736 | 53 | 165 | 2.6 | 4.3 | 0.00 | 0.00 | 0.00 | 64 | 1005.9 |
| 20260505063725 | 56 | 165 | 3.5 | 5.2 | 0.00 | 0.00 | 0.00 | 58 | 1006.0 |
| 20260505062732 | 59 | 249 | 3.5 | 7.0 | 0.00 | 0.00 | 0.00 | 52 | 1005.8 |
| 20260505061739 | 60 | 96 | 5.2 | 7.0 | 0.00 | 0.00 | 0.00 | 47 | 1005.6 |
| 20260505060724 | 59 | 70 | 1.7 | 3.5 | 0.00 | 0.00 | 0.00 | 50 | 1005.7 |
| 20260505055733 | 60 | 70 | 1.7 | 6.1 | 0.00 | 0.00 | 0.00 | 48 | 1005.7 |
| 20260505054722 | 59 | 78 | 4.3 | 7.0 | 0.00 | 0.00 | 0.00 | 49 | 1005.7 |
| 20260505053729 | 59 | 84 | 1.7 | 5.2 | 0.00 | 0.00 | 0.00 | 47 | 1005.7 |
| 20260505052734 | 58 | 82 | 2.6 | 4.3 | 0.00 | 0.00 | 0.00 | 47 | 1005.8 |
| 20260505051721 | 58 | 55 | 2.6 | 4.3 | 0.00 | 0.00 | 0.00 | 47 | 1005.8 |
| 20260505050731 | 58 | 53 | 2.6 | 4.3 | 0.00 | 0.00 | 0.00 | 46 | 1005.8 |
| 20260505041731 | 61 | 194 | 0.9 | 3.5 | 0.00 | 0.00 | 0.00 | 45 | 1005.0 |
| 20260505040733 | 62 | 193 | 0.0 | 1.7 | 0.00 | 0.00 | 0.00 | 44 | 1004.9 |
| 20260505035747 | 62 | 193 | 0.0 | 1.7 | 0.00 | 0.00 | 0.00 | 45 | 1004.9 |
| 20260505034733 | 62 | 194 | 1.7 | 3.5 | 0.00 | 0.00 | 0.00 | 45 | 1005.0 |
| 20260505033726 | 60 | 143 | 1.7 | 3.5 | 0.00 | 0.00 | 0.00 | 46 | 1004.7 |
| 20260505032735 | 59 | 132 | 3.5 | 4.3 | 0.00 | 0.00 | 0.00 | 46 | 1004.7 |
| 20260505031723 | 59 | 351 | 1.7 | 2.6 | 0.00 | 0.00 | 0.00 | 50 | 1004.7 |
| 20260505030736 | 60 | 350 | 0.9 | 2.6 | 0.00 | 0.00 | 0.00 | 46 | 1004.5 |
| 20260505025729 | 60 | 350 | 2.6 | 3.5 | 0.00 | 0.00 | 0.00 | 47 | 1004.4 |
| 20260505024736 | 62 | 350 | 1.7 | 2.6 | 0.00 | 0.00 | 0.00 | 44 | 1004.2 |
| 20260505023758 | 63 | 348 | 0.9 | 2.6 | 0.00 | 0.00 | 0.00 | 40 | 1004.1 |
| 20260505022724 | 64 | 11 | 3.5 | 7.0 | 0.00 | 0.00 | 0.00 | 43 | 1004.0 |
| 20260505021733 | 64 | 136 | 0.9 | 3.5 | 0.00 | 0.00 | 0.00 | 42 | 1003.7 |
| 20260505020738 | 65 | 85 | 2.6 | 5.2 | 0.00 | 0.00 | 0.00 | 38 | 1003.6 |
| 20260505015728 | 66 | 82 | 3.5 | 4.3 | 0.00 | 0.00 | 0.00 | 37 | 1003.7 |
| 20260505014733 | 67 | 328 | 1.7 | 2.6 | 0.00 | 0.00 | 0.00 | 38 | 1003.7 |
| 20260505013724 | 69 | 328 | 1.7 | 2.6 | 0.00 | 0.00 | 0.00 | 35 | 1003.7 |
| 20260505012751 | 70 | 328 | 0.0 | 2.6 | 0.00 | 0.00 | 0.00 | 32 | 1003.8 |
| 20260505011754 | 71 | 328 | 1.7 | 3.5 | 0.00 | 0.00 | 0.00 | 27 | 1003.8 |
| 20260505010737 | 72 | 312 | 1.7 | 3.5 | 0.00 | 0.00 | 0.00 | 26 | 1003.9 |
| 20260505005727 | 71 | 34 | 0.9 | 2.6 | 0.00 | 0.00 | 0.00 | 27 | 1003.9 |
| 20260505004736 | 69 | 34 | 1.7 | 3.5 | 0.00 | 0.00 | 0.00 | 29 | 1004.0 |
| 20260505003723 | 68 | 63 | 1.7 | 4.3 | 0.00 | 0.00 | 0.00 | 34 | 1004.1 |
| 20260505002751 | 68 | 63 | 1.7 | 7.0 | 0.00 | 0.00 | 0.00 | 32 | 1004.4 |
| 20260505001738 | 68 | 54 | 4.3 | 10.4 | 0.00 | 0.00 | 0.00 | 31 | 1004.4 |
| 20260505000735 | 67 | 80 | 8.7 | 12.2 | 0.00 | 0.00 | 0.00 | 30 | 1004.4 |
| 20260504235730 | 68 | 85 | 5.2 | 10.4 | 0.00 | 0.00 | 0.00 | 31 | 1004.4 |
| 20260504234734 | 68 | 265 | 7.8 | 20.0 | 0.00 | 0.00 | 0.00 | 29 | 1004.3 |
| 20260504233737 | 67 | 264 | 10.4 | 20.9 | 0.00 | 0.00 | 0.00 | 31 | 1004.4 |
| 20260504232720 | 67 | 267 | 9.6 | 20.0 | 0.00 | 0.00 | 0.00 | 30 | 1004.3 |
| 20260504231731 | 67 | 288 | 9.6 | 16.5 | 0.00 | 0.00 | 0.00 | 32 | 1004.4 |
| 20260504230737 | 67 | 269 | 9.6 | 15.6 | 0.00 | 0.00 | 0.00 | 34 | 1004.6 |
| 20260504225729 | 67 | 302 | 7.8 | 20.0 | 0.00 | 0.00 | 0.00 | 34 | 1004.6 |
| 20260504224736 | 69 | 277 | 11.3 | 18.2 | 0.00 | 0.00 | 0.00 | 32 | 1004.7 |
| 20260504223727 | 73 | 290 | 7.0 | 12.2 | 0.00 | 0.00 | 0.00 | 27 | 1004.4 |
| 20260504222737 | 74 | 261 | 0.9 | 7.0 | 0.00 | 0.00 | 0.00 | 21 | 1004.2 |
| 20260504221721 | 74 | 269 | 3.5 | 6.1 | 0.00 | 0.00 | 0.00 | 21 | 1004.1 |
| 20260504220730 | 74 | 252 | 5.2 | 8.7 | 0.00 | 0.00 | 0.00 | 23 | 1004.1 |
| 20260504215726 | 74 | 202 | 2.6 | 7.8 | 0.00 | 0.00 | 0.00 | 22 | 1004.3 |
| 20260504214730 | 74 | 234 | 1.7 | 6.1 | 0.00 | 0.00 | 0.00 | 23 | 1004.5 |
| 20260504213734 | 74 | 233 | 3.5 | 7.8 | 0.00 | 0.00 | 0.00 | 25 | 1004.8 |
| 20260504212719 | 74 | 278 | 4.3 | 7.0 | 0.00 | 0.00 | 0.00 | 25 | 1005.0 |
| 20260504211729 | 73 | 286 | 2.6 | 8.7 | 0.00 | 0.00 | 0.00 | 26 | 1005.1 |
| 20260504210735 | 73 | 244 | 1.7 | 6.1 | 0.00 | 0.00 | 0.00 | 29 | 1005.2 |
| 20260504205731 | 73 | 188 | 5.2 | 7.0 | 0.00 | 0.00 | 0.00 | 30 | 1005.4 |
| 20260504204740 | 73 | 210 | 3.5 | 7.0 | 0.00 | 0.00 | 0.00 | 27 | 1005.5 |
| 20260504203728 | 72 | 282 | 1.7 | 7.8 | 0.00 | 0.00 | 0.00 | 32 | 1005.6 |
| 20260504202741 | 72 | 119 | 2.6 | 8.7 | 0.00 | 0.00 | 0.00 | 32 | 1005.7 |
| 20260504201729 | 71 | 187 | 3.5 | 8.7 | 0.00 | 0.00 | 0.00 | 36 | 1005.8 |
| 20260504200737 | 71 | 128 | 3.5 | 7.0 | 0.00 | 0.00 | 0.00 | 34 | 1006.0 |
| 20260504195731 | 71 | 192 | 3.5 | 7.8 | 0.00 | 0.00 | 0.00 | 34 | 1006.2 |
| 20260504194722 | 71 | 122 | 1.7 | 4.3 | 0.00 | 0.00 | 0.00 | 34 | 1006.3 |
| 20260504193729 | 70 | 204 | 2.6 | 7.8 | 0.00 | 0.00 | 0.00 | 34 | 1006.5 |
| 20260504192734 | 69 | 135 | 4.3 | 7.0 | 0.00 | 0.00 | 0.00 | 34 | 1006.6 |
| 20260504191721 | 69 | 169 | 1.7 | 6.1 | 0.00 | 0.00 | 0.00 | 35 | 1006.7 |
| 20260504190731 | 69 | 196 | 4.3 | 7.0 | 0.00 | 0.00 | 0.00 | 34 | 1006.9 |
| 20260504185728 | 69 | 235 | 3.5 | 6.1 | 0.00 | 0.00 | 0.00 | 32 | 1007.1 |
| 20260504184755 | 69 | 232 | 3.5 | 7.8 | 0.00 | 0.00 | 0.00 | 33 | 1007.3 |
| 20260504183720 | 69 | 98 | 3.5 | 7.8 | 0.00 | 0.00 | 0.00 | 31 | 1007.5 |
| 20260504182732 | 68 | 252 | 2.6 | 7.8 | 0.00 | 0.00 | 0.00 | 34 | 1007.6 |
| 20260504181758 | 68 | 257 | 2.6 | 7.0 | 0.00 | 0.00 | 0.00 | 35 | 1007.7 |
| 20260504180738 | 68 | 225 | 1.7 | 5.2 | 0.00 | 0.00 | 0.00 | 32 | 1007.8 |
| 20260504175732 | 67 | 150 | 1.7 | 4.3 | 0.00 | 0.00 | 0.00 | 34 | 1008.0 |
| 20260504174740 | 66 | 205 | 0.9 | 4.3 | 0.00 | 0.00 | 0.00 | 35 | 1008.1 |
| 20260504173725 | 66 | 256 | 2.6 | 6.1 | 0.00 | 0.00 | 0.00 | 37 | 1008.1 |
| 20260504172736 | 65 | 188 | 2.6 | 4.3 | 0.00 | 0.00 | 0.00 | 39 | 1008.2 |
| 20260504171725 | 64 | 195 | 1.7 | 3.5 | 0.00 | 0.00 | 0.00 | 39 | 1008.2 |
| 20260504170732 | 64 | 215 | 1.7 | 4.3 | 0.00 | 0.00 | 0.00 | 37 | 1008.2 |
| 20260504150736 | 52 | 254 | 0.9 | 2.6 | 0.00 | 0.00 | 0.00 | 61 | 1008.7 |
| 20260504140732 | 50 | 49 | 0.9 | 2.6 | 0.00 | 0.00 | 0.00 | 61 | 1008.9 |
| 20260504130752 | 44 | 18 | 1.7 | 3.5 | 0.00 | 0.00 | 0.00 | 65 | 1008.7 |